Amarillo, TX

1:57 AM CDT on August 24, 2016 (GMT -0500)
Amarillo International

Weather History for KAMA - February, 2014

Change the Weather History Date:

Monday, February 3, 2014

  Actual Average Record
Temperature  
Mean Temperature 30 °F 38 °F  
Max Temperature 40 °F 52 °F 81 °F (1934)
Min Temperature 19 °F 24 °F -5 °F (2011)
Degree Days  
Heating Degree Days 35 27  
Month to date heating degree days 110 81  
Since 1 July heating degree days 2708 2666  
Cooling Degree Days 0 0  
Month to date cooling degree days 0 0  
Year to date cooling degree days 0 0  
Moisture  
Dew Point 24 °F    
Average Humidity 85    
Maximum Humidity 100    
Minimum Humidity 70    
Precipitation  
Precipitation 0.00 in 0.03 in 0.80 in (2010)
Month to date precipitation T 0.07  
Year to date precipitation 0.03 0.79  
Snow  
Snow 0.00 in 0.20 in 9.50 in (1964)
Month to date snowfall T 0.5  
Since 1 July snowfall 7.4 11.6  
Snow Depth 0.00 in    
Sea Level Pressure  
Sea Level Pressure 30.01 in    
Wind  
Wind Speed 17 mph (SSE)    
Max Wind Speed 29 mph    
Max Gust Speed 34 mph    
Visibility 8 miles    
Events Fog    
T = Trace of Precipitation, MM = Missing Value Source: NWS Daily Summary

Daily Weather History Graph

Daily Weather History Graph

Search for Another Location

Airport or City:

Trip Planner

Search our weather history database for the weather conditions in past years. The results will help you decide how hot, cold, wet, or windy it might be!

Date:

Astronomy

Feb. 03, 2014 Rise Set
Actual Time 7:44 AM CST 6:17 PM CST
Civil Twilight 7:17 AM CST 6:43 PM CST
Nautical Twilight 6:47 AM CST 7:14 PM CST
Astronomical Twilight 6:17 AM CST 7:44 PM CST
Moon 9:59 AM CST (2/3) 10:57 PM CST (2/3)
Length of Visible Light 11h 26m
Length of Day
10h 32m
Waxing Crescent, 20% of the Moon is Illuminated
Feb 3
Waxing Crescent
Feb 6
First Quarter
Feb 14
Full
Feb 22
Last Quarter
Mar 1
New

Hourly Weather History & Observations

Time (CST) Temp. Windchill Dew Point Humidity Pressure Visibility Wind Dir Wind Speed Gust Speed Precip Events Conditions
12:53 AM 19.0 °F 10.0 °F 15.1 °F 85% 30.20 in 10.0 mi SSE 6.9 mph - N/A   Scattered Clouds
1:09 AM 21.0 °F 12.4 °F 17.1 °F 85% 30.12 in 10.0 mi SSE 6.9 mph - N/A   Mostly Cloudy
1:53 AM 21.0 °F 9.3 °F 17.1 °F 85% 30.16 in 10.0 mi SSE 11.5 mph - N/A   Mostly Cloudy
2:53 AM 24.1 °F 11.0 °F 18.0 °F 77% 30.14 in 10.0 mi SSE 16.1 mph - N/A   Overcast
3:53 AM 25.0 °F 12.2 °F 19.0 °F 78% 30.12 in 10.0 mi South 16.1 mph 24.2 mph N/A   Overcast
4:53 AM 25.0 °F 13.1 °F 19.9 °F 81% 30.10 in 10.0 mi SSE 13.8 mph - N/A   Overcast
5:41 AM 25.0 °F 12.6 °F 19.9 °F 81% 30.04 in 10.0 mi SSE 15.0 mph - N/A   Overcast
5:49 AM 24.8 °F 11.5 °F 19.4 °F 80% 30.03 in 10.0 mi SSE 17.3 mph - N/A   Overcast
5:53 AM 25.0 °F 12.2 °F 19.9 °F 81% 30.09 in 10.0 mi SSE 16.1 mph - N/A   Overcast
6:11 AM 25.0 °F 14.2 °F 19.9 °F 81% 30.05 in 10.0 mi SSE 11.5 mph - N/A   Overcast
6:53 AM 25.0 °F 13.1 °F 21.0 °F 85% 30.13 in 10.0 mi South 13.8 mph - N/A   Overcast
7:53 AM 25.0 °F 13.1 °F 23.0 °F 92% 30.12 in 6.0 mi South 13.8 mph - N/A   Overcast
8:21 AM 25.0 °F 12.2 °F 23.0 °F 92% 30.05 in 5.0 mi SSE 16.1 mph - N/A   Overcast
8:53 AM 26.1 °F 14.0 °F 23.0 °F 88% 30.14 in 5.0 mi South 15.0 mph - N/A   Overcast
9:08 AM 26.1 °F 14.5 °F 24.1 °F 92% 30.06 in 5.0 mi South 13.8 mph - N/A   Overcast
9:34 AM 27.0 °F 15.6 °F 25.0 °F 92% 30.06 in 3.0 mi South 13.8 mph - N/A   Overcast
9:51 AM 28.4 °F 16.2 °F 26.6 °F 93% 30.05 in 1.0 mi South 17.3 mph - N/A   Overcast
9:53 AM 28.0 °F 16.5 °F 26.1 °F 92% 30.12 in 1.0 mi South 15.0 mph - N/A   Overcast
10:00 AM 28.0 °F 15.3 °F 26.1 °F 92% 30.05 in 1.0 mi South 18.4 mph - N/A   Overcast
10:53 AM 30.0 °F 17.2 °F 27.0 °F 88% 30.12 in 8.0 mi SSW 20.7 mph - N/A   Overcast
11:11 AM 30.9 °F 17.5 °F 27.0 °F 85% 30.03 in 10.0 mi South 24.2 mph - N/A   Overcast
11:22 AM 32.0 °F 19.5 °F 27.0 °F 82% 30.02 in 10.0 mi South 21.9 mph 28.8 mph N/A   Overcast
11:53 AM 33.1 °F 20.6 °F 27.0 °F 78% 30.07 in 10.0 mi South 23.0 mph 29.9 mph N/A   Overcast
12:53 PM 34.0 °F 21.3 °F 28.0 °F 79% 30.04 in 10.0 mi South 25.3 mph - N/A   Overcast
1:12 PM 37.0 °F 25.9 °F 28.9 °F 73% 29.97 in 10.0 mi South 23.0 mph 27.6 mph N/A   Overcast
1:53 PM 37.0 °F 25.9 °F 28.9 °F 73% 29.98 in 10.0 mi South 23.0 mph 28.8 mph N/A   Overcast
2:34 PM 39.0 °F 28.3 °F 30.0 °F 70% 29.91 in 10.0 mi South 24.2 mph 33.4 mph N/A   Overcast
2:53 PM 39.0 °F 28.5 °F 30.0 °F 70% 29.93 in 10.0 mi South 23.0 mph - N/A   Overcast
3:53 PM 37.9 °F 27.3 °F 28.9 °F 70% 29.92 in 10.0 mi South 21.9 mph - N/A   Overcast
4:04 PM 37.9 °F 27.9 °F 28.9 °F 70% 29.88 in 10.0 mi SSE 19.6 mph - N/A   Overcast
4:53 PM 36.0 °F 26.0 °F 28.9 °F 76% 29.91 in 10.0 mi South 17.3 mph - N/A   Overcast
5:53 PM 35.1 °F 25.9 °F 28.9 °F 78% 29.91 in 10.0 mi SSE 13.8 mph - N/A   Overcast
6:53 PM 33.1 °F 22.2 °F 27.0 °F 78% 29.92 in 10.0 mi SSE 17.3 mph - N/A   Overcast
7:53 PM 30.0 °F 17.2 °F 24.1 °F 79% 29.91 in 10.0 mi SE 20.7 mph - N/A   Overcast
8:06 PM 28.0 °F 14.6 °F 23.0 °F 81% 29.86 in 10.0 mi SE 20.7 mph - N/A   Overcast
8:53 PM 27.0 °F 14.7 °F 23.0 °F 85% 29.91 in 10.0 mi SE 16.1 mph - N/A   Overcast
9:53 PM 26.1 °F 13.1 °F 24.1 °F 92% 29.91 in 6.0 mi SSE 17.3 mph - N/A   Overcast
10:01 PM 26.1 °F 12.7 °F 25.0 °F 96% 29.85 in 2.5 mi SSE 18.4 mph - N/A   Overcast
10:08 PM 26.1 °F 12.3 °F 25.0 °F 96% 29.85 in 1.0 mi SSE 19.6 mph - N/A   Overcast
10:15 PM 26.1 °F 12.3 °F 25.0 °F 96% 29.85 in 0.8 mi SSE 19.6 mph - N/A Fog Light Freezing Fog
10:53 PM 25.0 °F 13.6 °F 24.1 °F 96% 29.91 in 0.8 mi SE 12.7 mph - N/A Fog Light Freezing Fog
11:02 PM 25.0 °F 13.6 °F 24.1 °F 96% 29.87 in 0.5 mi SSE 12.7 mph - N/A Fog Light Freezing Fog
11:53 PM 25.0 °F 12.6 °F 24.1 °F 96% 29.89 in 0.5 mi SSE 15.0 mph - N/A Fog Light Freezing Fog